Location: Invercargill
(46.4000°S, 168.3500°E)
Time: 03:19:53
(UTC+12:00)

Courier 1B - Visible Passes

Search period start: 23 August 2019 00:00
Search period end: 02 September 2019 00:00
Orbit: 962 x 1209 km, 28.3° (Epoch: 21 August)

Date Brightness Start Highest point End Pass type
(mag) Time Alt. Az. Time Alt. Az. Time Alt. Az.
23 Aug 10.0 06:14:15 10° NNW 06:18:01 14° NNE 06:21:50 10° NE visible
24 Aug 10.0 05:22:04 10° N 05:24:30 12° NNE 05:26:57 10° NE visible
25 Aug 9.8 06:19:07 10° NNW 06:23:45 17° N 06:28:30 10° NE visible
26 Aug 9.8 05:26:12 10° NNW 05:30:13 15° NNE 05:34:19 10° NE visible
27 Aug 9.8 04:35:26 12° N 04:36:42 13° NNE 04:39:47 10° NE visible
27 Aug 9.7 06:24:39 10° NW 06:29:33 19° N 06:34:35 10° NE visible
28 Aug 9.6 05:31:57 11° NNW 05:35:59 18° N 05:40:42 10° NE visible
29 Aug 9.5 04:41:33 16° N 04:42:28 16° NNE 04:46:39 10° NE visible
29 Aug 9.6 06:30:38 10° NW 06:35:22 18° N 06:40:14 10° NE visible
30 Aug 9.9 03:51:07 12° NE 03:51:07 12° NE 03:52:21 10° NE visible
30 Aug 9.5 05:38:01 12° NW 05:41:48 18° N 05:46:36 10° NE visible
31 Aug 9.4 04:47:35 17° N 04:48:16 17° N 04:52:49 10° NE visible
31 Aug 9.7 06:37:06 10° NW 06:41:11 16° N 06:45:22 10° NNE visible
01 Sep 9.7 03:57:09 14° NNE 03:57:09 14° NNE 03:58:55 10° NE visible
01 Sep 9.5 05:44:02 12° NW 05:47:39 17° N 05:52:02 10° NNE visible
